period_start,C,m1,H,J0,J1,J2,J3,J4,J5,JA,JB,JC,JD,JJ,JK,JN,#
2015-11-24 00:04:22,0.03,8.06,0.00,18.14,22.35,26.24,15.12,52.21,1029.82,2051.00,1654.01,1646.96,1810.81,600.09,613.89,52.94,0000 0000 0000 0000 000000
2015-11-24 00:09:23,0.09,8.06,0.00,18.14,22.36,26.24,15.06,52.28,1029.81,2051.00,1653.65,1646.59,1810.14,600.14,614.02,52.99,0000 0000 0000 0000 000000
2015-11-24 00:14:25,0.05,8.06,0.00,18.14,22.37,26.27,15.05,52.11,1029.80,2051.00,1653.02,1646.05,1810.00,599.87,613.70,53.04,0000 0000 0000 0000 000000
2015-11-24 00:19:26,0.05,8.06,0.00,18.14,22.37,26.25,15.10,52.43,1029.80,2051.00,1652.57,1645.99,1809.65,600.24,614.11,53.09,0000 0000 0000 0000 000000
2015-11-24 00:24:27,0.06,8.07,0.00,18.14,22.37,26.27,15.16,52.38,1029.80,2050.99,1652.01,1645.76,1809.06,600.06,613.76,53.14,0000 0000 0000 0000 000000
2015-11-24 00:29:29,0.08,8.07,0.00,18.12,22.37,26.27,15.13,52.23,1029.62,2050.99,1651.37,1645.09,1808.97,600.16,613.94,53.19,0000 0000 0000 0000 000000
2015-11-24 00:34:30,0.06,8.08,0.00,18.12,22.37,26.30,15.07,52.28,1029.32,2050.99,1650.79,1644.99,1808.33,599.96,613.62,53.24,0000 0000 0000 0000 000000
2015-11-24 00:39:31,0.07,8.08,0.00,18.12,22.37,26.31,15.09,52.64,1029.31,2050.99,1650.05,1644.72,1808.00,600.20,613.80,53.30,0000 0000 0000 0000 000000
2015-11-24 00:44:33,0.11,8.09,0.00,18.13,22.38,26.23,15.06,52.63,1029.24,2050.99,1649.36,1644.04,1807.46,599.92,613.44,53.35,0000 0000 0000 0000 000000
2015-11-24 00:49:34,0.04,8.09,0.00,18.23,22.39,25.99,15.04,52.31,1029.18,2050.99,1648.77,1643.92,1806.99,599.90,613.22,53.40,0000 0000 0000 0000 000000
2015-11-24 00:54:35,0.13,8.09,0.00,18.24,22.39,26.09,15.08,52.72,1028.89,2050.98,1647.93,1643.20,1806.35,600.22,613.24,53.45,0000 0000 0000 0000 000000
2015-11-24 00:59:37,0.09,8.10,0.00,18.16,22.39,26.19,14.99,52.83,1028.84,2050.99,1647.04,1642.79,1805.74,599.53,612.79,53.50,0000 0000 0000 0000 000000
2015-11-24 01:04:38,0.11,8.11,0.00,18.13,22.39,26.25,15.09,52.88,1028.80,2050.99,1646.22,1642.06,1805.03,599.99,613.18,53.55,0000 0000 0000 0000 000000
2015-11-24 01:09:39,0.05,8.11,0.00,18.11,22.39,26.22,15.04,52.89,1028.64,2050.99,1645.64,1641.98,1804.69,599.98,613.20,53.60,0000 0000 0000 0000 000000
2015-11-24 01:14:41,0.09,8.11,0.00,18.09,22.37,26.21,15.11,52.61,1028.67,2050.98,1645.01,1641.30,1804.06,600.23,613.50,53.65,0000 0000 0000 0000 000000
2015-11-24 01:19:42,0.08,8.12,0.00,18.07,22.37,26.18,15.04,52.61,1028.46,2050.98,1644.35,1640.99,1803.64,599.94,613.06,53.70,0000 0000 0000 0000 000000
2015-11-24 01:24:43,0.12,8.12,0.00,18.07,22.37,26.23,15.00,52.63,1028.50,2050.98,1643.35,1640.55,1803.01,600.00,613.14,53.75,0000 0000 0000 0000 000000
2015-11-24 01:29:44,0.05,8.13,0.00,18.04,22.36,26.19,15.11,52.62,1028.51,2050.99,1642.89,1640.02,1802.64,600.24,613.51,53.80,0000 0000 0000 0000 000000
2015-11-24 01:34:45,0.06,8.13,0.00,18.04,22.35,26.22,15.10,52.82,1028.35,2050.99,1642.11,1639.99,1802.03,600.14,613.23,53.85,0000 0000 0000 0000 000000
2015-11-24 01:39:46,0.09,8.13,0.00,18.03,22.35,26.19,15.05,52.78,1028.33,2050.99,1641.49,1639.56,1801.86,599.78,612.99,53.90,0000 0000 0000 0000 000000
2015-11-24 01:44:47,0.08,8.14,0.00,18.02,22.34,26.23,15.09,53.03,1028.19,2050.99,1640.75,1639.03,1801.10,600.12,613.24,53.95,0000 0000 0000 0000 000000
2015-11-24 01:49:49,0.14,8.14,0.00,18.02,22.34,26.21,15.07,53.12,1028.20,2050.99,1639.81,1638.50,1800.57,600.16,613.23,54.00,0000 0000 0000 0000 000000
2015-11-24 01:54:50,0.13,8.15,0.00,18.02,22.34,26.19,15.01,53.08,1028.14,2050.99,1638.88,1637.45,1799.67,599.70,612.80,54.05,0000 0000 0000 0000 000000
2015-11-24 01:59:52,0.07,8.16,0.00,18.02,22.34,26.17,15.10,53.07,1028.28,2050.99,1638.10,1637.01,1799.02,599.54,612.69,54.10,0000 0000 0000 0000 000000
2015-11-24 02:04:53,0.06,8.16,0.00,18.01,22.33,26.23,15.09,52.99,1028.29,2050.99,1637.89,1636.61,1798.64,600.02,613.25,54.16,0000 0000 0000 0000 000000
2015-11-24 02:09:54,0.10,8.17,0.00,17.99,22.32,26.18,15.02,53.03,1028.08,2050.99,1637.08,1636.02,1798.04,599.72,612.84,54.21,0000 0000 0000 0000 000000
2015-11-24 02:14:55,0.09,8.17,0.00,17.98,22.32,26.15,15.10,52.83,1028.15,2050.99,1636.52,1635.79,1797.61,600.00,613.18,54.26,0000 0000 0000 0000 000000
2015-11-24 02:19:56,0.14,8.18,0.00,17.97,22.32,26.16,15.03,53.16,1028.19,2050.99,1635.38,1635.09,1796.54,599.70,613.08,54.31,0000 0000 0000 0000 000000
2015-11-24 02:24:58,0.08,8.18,0.00,17.97,22.32,26.16,15.02,53.18,1028.05,2050.99,1634.70,1634.58,1796.01,599.57,612.78,54.36,0000 0000 0000 0000 000000
2015-11-24 02:29:59,0.07,8.19,0.00,17.97,22.32,26.17,15.11,52.92,1028.03,2050.99,1634.00,1634.03,1795.60,599.92,613.19,54.41,0000 0000 0000 0000 000000
2015-11-24 02:35:01,0.05,8.19,0.00,17.97,22.32,26.19,14.97,52.96,1028.13,2050.99,1633.34,1633.98,1795.02,599.46,612.56,54.46,0000 0000 0000 0000 000000
2015-11-24 02:40:02,0.02,8.19,0.00,17.96,22.32,26.17,15.02,52.87,1028.22,2050.99,1633.00,1633.85,1794.99,599.61,612.91,54.51,0000 0000 0000 0000 000000
2015-11-24 02:45:04,0.12,8.20,0.00,17.95,22.32,26.16,15.10,52.83,1028.30,2050.99,1632.36,1633.16,1794.60,600.05,613.39,54.56,0000 0000 0000 0000 000000
2015-11-24 02:50:05,0.02,8.20,0.00,17.95,22.32,26.18,15.09,52.66,1028.40,2051.00,1631.99,1633.00,1794.01,600.01,613.47,54.61,0000 0000 0000 0000 000000
2015-11-24 02:55:07,0.05,8.20,0.00,17.95,22.32,26.18,15.05,52.68,1028.33,2051.00,1631.45,1632.97,1793.99,599.84,613.21,54.66,0000 0000 0000 0000 000000
2015-11-24 03:00:08,0.10,8.21,0.00,17.96,22.32,26.19,15.08,52.75,1028.28,2051.00,1630.93,1632.23,1793.28,600.02,613.35,54.71,0000 0000 0000 0000 000000
2015-11-24 03:05:09,0.05,8.21,0.00,17.97,22.32,26.18,15.11,52.79,1028.32,2051.00,1630.30,1632.01,1793.00,600.10,613.46,54.76,0000 0000 0000 0000 000000
2015-11-24 03:10:11,0.02,8.21,0.00,17.97,22.32,26.17,14.99,52.92,1028.32,2051.00,1629.97,1631.91,1792.88,599.71,613.06,54.81,0000 0000 0000 0000 000000
2015-11-24 03:15:12,0.14,8.22,0.00,17.97,22.32,26.17,15.13,52.83,1028.28,2051.00,1629.32,1631.10,1792.12,600.21,613.53,54.86,0000 0000 0000 0000 000000
2015-11-24 03:20:13,0.02,8.22,0.00,17.96,22.32,26.19,15.07,52.93,1028.03,2051.00,1628.83,1630.97,1792.00,600.16,613.25,54.91,0000 0000 0000 0000 000000
2015-11-24 03:25:14,0.13,8.22,0.00,17.97,22.32,26.20,15.07,52.84,1028.30,2051.00,1628.01,1630.32,1791.31,600.38,613.70,54.96,0000 0000 0000 0000 000000
2015-11-24 03:30:16,0.05,8.23,0.00,17.96,22.32,26.15,15.10,53.19,1028.30,2051.00,1627.34,1630.00,1790.99,600.22,613.59,55.01,0000 0000 0000 0000 000000
2015-11-24 03:35:17,0.07,8.23,0.00,17.95,22.32,26.18,15.11,52.82,1028.34,2051.00,1626.93,1629.71,1790.37,600.06,613.27,55.07,0000 0000 0000 0000 000000
2015-11-24 03:40:18,0.09,8.24,0.00,17.96,22.32,26.16,15.12,53.02,1028.33,2051.00,1626.12,1629.03,1789.93,600.02,613.45,55.12,0000 0000 0000 0000 000000
2015-11-24 03:45:19,0.06,8.24,0.00,17.95,22.32,26.16,15.01,52.98,1028.31,2051.00,1625.68,1628.84,1789.16,600.15,613.60,55.17,0000 0000 0000 0000 000000
2015-11-24 03:50:20,0.09,8.25,0.00,17.94,22.32,26.18,15.13,53.05,1028.22,2051.00,1625.08,1628.16,1788.99,599.89,613.23,55.22,0000 0000 0000 0000 000000
2015-11-24 03:55:22,0.01,8.25,0.00,17.94,22.32,26.17,15.10,52.87,1028.19,2051.00,1624.94,1628.01,1788.90,599.67,612.90,55.27,0000 0000 0000 0000 000000
2015-11-24 04:00:23,0.02,8.25,0.00,17.94,22.32,26.16,15.07,53.08,1028.19,2051.00,1624.94,1627.96,1788.31,599.90,613.26,55.32,0000 0000 0000 0000 000000
2015-11-24 04:05:25,0.10,8.25,0.00,17.94,22.32,26.15,15.18,53.15,1028.30,2051.01,1624.23,1627.40,1788.00,600.28,613.65,55.37,0000 0000 0000 0000 000000
2015-11-24 04:10:26,0.02,8.25,0.00,17.94,22.31,26.17,15.01,52.76,1028.31,2051.01,1624.00,1627.09,1787.95,599.93,613.34,55.42,0000 0000 0000 0000 000000
2015-11-24 04:15:27,0.08,8.26,0.00,17.94,22.31,26.17,15.08,53.01,1028.31,2051.00,1623.39,1627.01,1787.23,599.83,613.18,55.47,0000 0000 0000 0000 000000
2015-11-24 04:20:28,0.04,8.26,0.00,17.93,22.31,26.16,15.17,52.99,1028.33,2051.01,1622.97,1626.76,1786.99,600.14,613.51,55.52,0000 0000 0000 0000 000000
2015-11-24 04:25:30,0.11,8.27,0.00,17.92,22.30,26.16,15.04,53.08,1028.38,2051.01,1622.37,1626.08,1786.57,599.70,613.13,55.57,0000 0000 0000 0000 000000
2015-11-24 04:30:31,0.01,8.27,0.00,17.92,22.30,26.14,15.10,53.21,1028.36,2051.01,1622.04,1626.00,1786.08,599.95,613.53,55.62,0000 0000 0000 0000 000000
2015-11-24 04:35:32,0.00,8.27,0.00,17.90,22.30,26.17,15.16,53.21,1028.67,2051.00,1621.98,1625.99,1786.00,600.24,613.91,55.67,0000 0000 0000 0000 000000
2015-11-24 04:40:34,0.04,8.27,0.00,17.88,22.29,26.13,15.04,53.17,1028.81,2051.00,1621.60,1625.92,1785.99,599.87,613.75,55.72,0000 0000 0000 0000 000000
2015-11-24 04:45:35,0.05,8.27,0.00,17.85,22.29,26.13,15.10,53.23,1028.78,2051.00,1621.03,1625.61,1785.90,599.90,613.72,55.77,0000 0000 0000 0000 000000
2015-11-24 04:50:36,0.05,8.28,0.00,17.83,22.29,26.13,15.10,53.16,1028.55,2051.01,1620.99,1625.12,1785.26,600.21,613.89,55.82,0000 0000 0000 0000 000000
2015-11-24 04:55:37,0.05,8.28,0.00,17.80,22.29,26.12,15.15,53.31,1028.47,2051.00,1620.48,1625.01,1785.02,599.90,613.64,55.87,0000 0000 0000 0000 000000
2015-11-24 05:00:39,0.02,8.28,0.00,17.78,22.29,26.14,15.14,53.08,1028.76,2051.01,1619.99,1624.97,1784.96,600.09,614.07,55.92,0000 0000 0000 0000 000000
2015-11-24 05:05:40,0.03,8.28,0.00,17.77,22.27,26.12,15.11,53.18,1028.75,2051.01,1619.79,1624.92,1784.69,600.00,614.14,55.98,0000 0000 0000 0000 000000
2015-11-24 05:10:41,0.09,8.29,0.00,17.74,22.27,26.13,15.19,53.09,1028.76,2051.02,1619.08,1624.38,1784.11,600.26,614.36,56.03,0000 0000 0000 0000 000000
2015-11-24 05:15:43,0.02,8.29,0.00,17.74,22.27,26.12,15.12,52.96,1028.82,2051.01,1618.98,1624.04,1784.01,600.25,614.35,56.08,0000 0000 0000 0000 000000
2015-11-24 05:20:44,0.05,8.29,0.00,17.72,22.26,26.12,15.12,52.91,1028.83,2051.00,1618.42,1624.00,1783.99,600.01,614.14,56.13,0000 0000 0000 0000 000000
2015-11-24 05:25:46,0.02,8.29,0.00,17.72,22.25,26.10,15.12,52.76,1028.83,2051.01,1618.01,1623.99,1783.82,599.84,614.01,56.18,0000 0000 0000 0000 000000
2015-11-24 05:30:47,0.05,8.29,0.00,17.70,22.24,26.07,15.09,52.91,1028.83,2051.02,1617.79,1623.90,1783.09,599.96,614.17,56.23,0000 0000 0000 0000 000000
2015-11-24 05:35:48,0.08,8.30,0.00,17.69,22.24,26.05,15.12,52.86,1028.83,2051.02,1617.08,1623.22,1783.00,599.87,614.00,56.28,0000 0000 0000 0000 000000
2015-11-24 05:40:49,0.01,8.30,0.00,17.69,22.22,26.06,15.13,52.74,1028.83,2051.03,1617.00,1623.05,1782.99,599.77,614.03,56.33,0000 0000 0000 0000 000000
2015-11-24 05:45:50,0.01,8.30,0.00,17.69,22.22,26.06,14.99,52.67,1028.84,2051.08,1616.89,1623.01,1782.97,599.81,613.98,56.38,0000 0000 0000 0000 000000
2015-11-24 05:50:51,0.06,8.30,0.00,17.67,22.21,26.03,15.07,52.65,1028.83,2051.08,1616.18,1623.00,1782.72,599.68,613.86,56.43,0000 0000 0000 0000 000000
2015-11-24 05:55:52,0.03,8.30,0.00,17.67,22.20,26.02,15.15,52.71,1028.83,2051.12,1616.01,1622.98,1782.10,600.02,614.29,56.48,0000 0000 0000 0000 000000
2015-11-24 06:00:54,0.04,8.31,0.00,17.65,22.19,26.00,15.13,52.79,1028.83,2051.17,1615.70,1622.87,1782.00,599.94,614.30,56.53,0000 0000 0000 0000 000000
2015-11-24 06:05:55,0.07,8.31,0.00,17.64,22.19,26.02,15.17,52.90,1028.83,2051.20,1615.05,1622.24,1781.98,600.14,614.48,56.58,0000 0000 0000 0000 000000
2015-11-24 06:10:56,0.05,8.31,0.00,17.64,22.17,26.02,15.11,52.87,1028.83,2051.20,1614.96,1622.03,1781.56,600.17,614.43,56.63,0000 0000 0000 0000 000000
2015-11-24 06:15:58,0.03,8.31,0.00,17.64,22.17,25.98,15.17,52.76,1028.83,2051.27,1614.73,1622.00,1781.08,599.80,614.10,56.68,0000 0000 0000 0000 000000
2015-11-24 06:20:59,0.07,8.32,0.00,17.64,22.16,25.97,15.22,52.81,1028.82,2051.50,1614.07,1622.00,1781.01,600.25,614.59,56.73,0000 0000 0000 0000 000000
2015-11-24 06:26:00,0.03,8.32,0.00,17.64,22.15,25.99,15.21,52.94,1028.80,2051.70,1613.87,1621.94,1780.98,599.98,614.27,56.78,0000 0000 0000 0000 000000
2015-11-24 06:31:01,0.08,8.32,0.00,17.64,22.14,25.96,15.16,53.02,1028.82,2051.79,1613.30,1621.86,1780.92,599.96,614.41,56.84,0000 0000 0000 0000 000000
2015-11-24 06:36:03,0.08,8.33,0.00,17.62,22.14,25.93,15.10,53.06,1028.82,2051.86,1613.00,1621.27,1780.22,599.93,614.23,56.89,0000 0000 0000 0000 000000
2015-11-24 06:41:04,0.02,8.33,0.00,17.60,22.12,25.94,15.12,53.01,1028.80,2051.95,1612.92,1621.03,1780.01,599.86,614.30,56.94,0000 0000 0000 0000 000000
2015-11-24 06:46:06,0.05,8.33,0.00,17.59,22.12,25.92,15.06,52.92,1028.76,2051.97,1612.21,1621.00,1780.00,599.93,614.23,56.99,0000 0000 0000 0000 000000
2015-11-24 06:51:07,0.00,8.33,0.00,17.57,22.12,25.93,15.13,52.88,1028.79,2051.97,1612.00,1621.00,1779.99,599.79,614.27,57.04,0000 0000 0000 0000 000000
2015-11-24 06:56:09,0.00,8.33,0.00,17.57,22.10,25.98,15.17,52.85,1028.77,2051.98,1611.98,1621.00,1779.93,599.79,614.19,57.09,0000 0000 0000 0000 000000
2015-11-24 07:01:10,0.08,8.34,0.00,17.57,22.09,25.91,15.10,52.71,1028.80,2051.98,1611.41,1620.95,1779.27,600.15,614.58,57.14,0000 0000 0000 0000 000000
2015-11-24 07:06:12,0.02,8.34,0.00,17.57,22.09,25.93,15.10,52.66,1028.81,2051.98,1611.02,1620.75,1779.01,600.24,614.55,57.19,0000 0000 0000 0000 000000
2015-11-24 07:11:13,0.03,8.34,0.00,17.57,22.09,25.90,15.13,52.61,1028.82,2051.98,1611.00,1620.36,1779.00,599.99,614.57,57.24,0000 0000 0000 0000 000000
2015-11-24 07:16:14,0.02,8.34,0.00,17.57,22.08,25.91,15.09,52.69,1028.83,2051.99,1610.90,1620.07,1778.99,599.76,614.18,57.29,0000 0000 0000 0000 000000
2015-11-24 07:21:15,0.05,8.34,0.00,17.56,22.07,25.92,15.11,52.49,1028.81,2051.97,1610.22,1620.01,1778.91,600.02,614.43,57.34,0000 0000 0000 0000 000000
2015-11-24 07:26:17,0.03,8.35,0.00,17.56,22.07,25.90,15.04,52.45,1028.80,2051.99,1610.00,1620.00,1778.48,599.95,614.37,57.39,0000 0000 0000 0000 000000
2015-11-24 07:31:18,0.01,8.35,0.00,17.56,22.07,25.90,15.12,52.77,1028.76,2051.98,1609.93,1619.98,1778.03,600.18,614.54,57.44,0000 0000 0000 0000 000000
2015-11-24 07:36:19,0.05,8.35,0.00,17.57,22.05,25.89,15.08,52.73,1028.59,2051.99,1609.24,1619.92,1778.00,600.01,614.38,57.49,0000 0000 0000 0000 000000
2015-11-24 07:41:20,0.04,8.35,0.00,17.55,22.04,25.88,15.06,52.72,1028.40,2051.99,1609.00,1619.50,1777.97,599.85,614.20,57.54,0000 0000 0000 0000 000000
2015-11-24 07:46:21,0.05,8.35,0.00,17.57,22.04,25.87,15.01,52.67,1028.40,2051.99,1608.84,1619.06,1777.73,599.82,614.17,57.59,0000 0000 0000 0000 000000
2015-11-24 07:51:23,0.05,8.36,0.00,17.57,22.04,25.87,15.02,52.69,1028.52,2051.99,1608.17,1619.01,1777.15,599.64,614.01,57.64,0000 0000 0000 0000 000000
2015-11-24 07:56:24,0.00,8.36,0.00,17.56,22.03,25.83,15.00,52.76,1028.53,2051.99,1608.00,1619.00,1777.01,599.48,613.75,57.69,0000 0000 0000 0000 000000
2015-11-24 08:01:25,0.01,8.36,0.00,17.55,22.02,25.83,15.12,52.87,1028.43,2051.99,1607.85,1618.98,1776.99,600.06,614.33,57.75,0000 0000 0000 0000 000000
2015-11-24 08:06:26,0.05,8.36,0.00,17.55,22.02,25.84,15.10,52.90,1028.42,2052.00,1607.15,1618.94,1776.95,599.71,613.96,57.80,0000 0000 0000 0000 000000
2015-11-24 08:11:27,0.07,8.36,0.00,17.54,22.02,25.84,15.09,52.74,1028.36,2052.00,1607.00,1618.40,1776.40,599.68,614.00,57.85,0000 0000 0000 0000 000000
2015-11-24 08:16:28,0.03,8.37,0.00,17.54,22.02,25.89,15.06,52.71,1028.34,2052.01,1606.85,1618.06,1776.05,599.88,614.10,57.90,0000 0000 0000 0000 000000
2015-11-24 08:21:30,0.04,8.37,0.00,17.54,22.02,25.82,15.05,52.86,1028.35,2052.00,1606.11,1618.01,1776.00,599.79,613.92,57.95,0000 0000 0000 0000 000000
2015-11-24 08:26:31,0.00,8.37,0.00,17.54,22.00,25.85,15.11,52.84,1028.36,2052.00,1605.99,1618.00,1775.99,599.58,613.87,58.00,0000 0000 0000 0000 000000
2015-11-24 08:31:33,0.04,8.37,0.00,17.54,21.99,25.83,15.13,52.78,1028.39,2052.00,1605.67,1617.94,1775.80,600.07,614.36,58.05,0000 0000 0000 0000 000000
2015-11-24 08:36:34,0.07,8.37,0.00,17.54,21.99,25.83,15.08,52.75,1028.37,2052.00,1605.07,1617.68,1775.16,599.71,613.95,58.10,0000 0000 0000 0000 000000
2015-11-24 08:41:35,0.04,8.38,0.00,17.54,21.99,25.83,15.06,52.85,1028.34,2052.00,1604.94,1617.13,1775.01,599.79,614.02,58.15,0000 0000 0000 0000 000000
2015-11-24 08:46:36,0.05,8.38,0.00,17.54,21.99,25.83,15.16,52.98,1028.32,2052.01,1604.24,1617.00,1774.93,600.08,614.27,58.20,0000 0000 0000 0000 000000
2015-11-24 08:51:38,0.03,8.38,0.00,17.53,21.99,25.84,15.14,53.02,1028.04,2052.01,1604.00,1617.00,1774.39,599.77,613.80,58.25,0000 0000 0000 0000 000000
2015-11-24 08:56:39,0.03,8.38,0.00,17.53,21.98,25.83,15.07,53.13,1027.86,2052.02,1603.82,1616.98,1774.02,600.03,614.02,58.30,0000 0000 0000 0000 000000
2015-11-24 09:01:41,0.05,8.39,0.00,17.52,21.97,25.83,15.09,53.23,1027.85,2052.02,1603.18,1616.81,1774.00,599.86,614.02,58.35,0000 0000 0000 0000 000000
2015-11-24 09:06:42,0.04,8.39,0.00,17.50,21.97,25.80,15.16,53.16,1027.85,2052.04,1603.00,1616.23,1773.97,600.09,613.93,58.40,0000 0000 0000 0000 000000
2015-11-24 09:11:43,0.04,8.39,0.00,17.49,21.97,25.80,15.10,53.13,1027.84,2052.05,1602.78,1616.03,1773.62,600.17,614.17,58.45,0000 0000 0000 0000 000000
2015-11-24 09:16:45,0.05,8.39,0.00,17.48,21.97,25.80,15.22,53.18,1027.83,2052.04,1602.07,1616.00,1773.04,600.37,614.49,58.50,0000 0000 0000 0000 000000
2015-11-24 09:21:46,0.03,8.40,0.00,17.45,21.96,25.82,15.11,53.23,1027.78,2052.05,1601.74,1615.98,1773.00,600.07,614.09,58.55,0000 0000 0000 0000 000000
2015-11-24 09:26:48,0.07,8.40,0.00,17.44,21.94,25.80,15.10,53.20,1027.75,2052.06,1601.04,1615.67,1772.77,599.91,614.02,58.61,0000 0000 0000 0000 000000
2015-11-24 09:31:49,0.10,8.40,0.00,17.42,21.94,25.81,15.05,53.09,1027.65,2052.09,1600.64,1615.07,1772.04,599.82,613.88,58.66,0000 0000 0000 0000 000000
2015-11-24 09:36:50,0.04,8.41,0.00,17.42,21.94,25.78,15.07,53.09,1027.57,2052.22,1600.02,1615.00,1771.99,600.16,614.02,58.71,0000 0000 0000 0000 000000
2015-11-24 09:41:51,0.05,8.41,0.00,17.40,21.93,25.75,15.09,53.17,1027.38,2052.15,1599.66,1614.97,1771.69,599.91,613.96,58.76,0000 0000 0000 0000 000000
2015-11-24 09:46:53,0.11,8.41,0.00,17.39,21.92,25.72,15.11,53.02,1027.39,2052.44,1599.02,1614.62,1771.09,600.07,614.07,58.81,0000 0000 0000 0000 000000
2015-11-24 09:51:54,0.06,8.42,0.00,17.37,21.92,25.73,15.09,52.91,1027.41,2052.60,1598.97,1614.09,1771.00,599.97,614.05,58.86,0000 0000 0000 0000 000000
2015-11-24 09:56:55,0.08,8.42,0.00,17.37,21.91,25.74,15.05,52.98,1027.39,2052.82,1598.22,1614.01,1770.87,599.82,613.84,58.91,0000 0000 0000 0000 000000
2015-11-24 10:01:56,0.02,8.42,0.00,17.36,21.90,25.71,15.14,52.91,1027.39,2052.66,1597.90,1613.97,1770.09,600.10,614.08,58.96,0000 0000 0000 0000 000000
2015-11-24 10:06:57,0.12,8.43,0.00,17.35,21.89,25.70,15.14,52.83,1027.42,2052.73,1597.10,1613.50,1769.99,600.11,614.18,59.01,0000 0000 0000 0000 000000
2015-11-24 10:11:58,0.02,8.43,0.00,17.34,21.89,25.73,15.10,52.77,1027.47,2052.76,1596.94,1613.08,1769.78,599.81,613.82,59.06,0000 0000 0000 0000 000000
2015-11-24 10:17:00,0.10,8.44,0.00,17.34,21.88,25.73,15.12,52.80,1027.59,2052.86,1596.16,1613.00,1769.11,600.24,614.28,59.11,0000 0000 0000 0000 000000
2015-11-24 10:22:01,0.01,8.44,0.00,17.35,21.87,25.71,15.02,52.78,1027.74,2052.90,1595.97,1612.99,1769.00,599.90,614.23,59.16,0000 0000 0000 0000 000000
2015-11-24 10:27:02,0.05,8.44,0.00,17.36,21.87,25.71,15.15,52.59,1027.85,2052.93,1595.42,1612.95,1768.97,600.03,614.41,59.21,0000 0000 0000 0000 000000
2015-11-24 10:32:03,0.06,8.44,0.00,17.37,21.87,25.64,15.17,52.56,1027.86,2052.97,1595.01,1612.46,1768.67,600.25,614.58,59.26,0000 0000 0000 0000 000000
2015-11-24 10:37:05,0.04,8.45,0.00,17.37,21.87,25.66,15.21,52.60,1027.92,2052.97,1594.95,1612.07,1768.12,600.28,614.56,59.31,0000 0000 0000 0000 000000
2015-11-24 10:42:06,0.04,8.45,0.00,17.39,21.87,25.69,15.07,52.42,1028.20,2052.97,1594.46,1612.00,1768.01,599.88,614.31,59.36,0000 0000 0000 0000 000000
2015-11-24 10:47:07,0.01,8.45,0.00,17.40,21.86,25.66,15.10,52.32,1028.33,2052.98,1594.02,1612.00,1767.99,599.93,614.44,59.41,0000 0000 0000 0000 000000
2015-11-24 10:52:08,-0.00,8.45,0.00,17.43,21.86,25.72,15.04,52.27,1028.33,2052.95,1593.99,1611.98,1767.97,599.72,614.22,59.46,0000 0000 0000 0000 000000
2015-11-24 10:57:09,0.04,8.45,0.00,17.45,21.86,25.67,15.14,52.37,1028.34,2052.97,1593.83,1611.94,1767.53,600.12,614.63,59.51,0000 0000 0000 0000 000000
2015-11-24 11:02:11,0.07,8.45,0.00,17.47,21.87,25.67,15.08,52.28,1028.44,2052.97,1593.19,1611.63,1767.07,599.94,614.20,59.57,0000 0000 0000 0000 000000
2015-11-24 11:07:12,0.04,8.46,0.00,17.49,21.87,25.69,15.12,52.17,1028.61,2052.97,1593.00,1611.10,1767.00,599.83,614.30,59.62,0000 0000 0000 0000 000000
2015-11-24 11:12:13,0.01,8.46,0.00,17.52,21.87,25.71,15.05,52.10,1028.74,2052.97,1592.95,1611.02,1766.99,599.85,614.36,59.67,0000 0000 0000 0000 000000
2015-11-24 11:17:14,0.08,8.46,0.00,17.55,21.87,25.70,15.09,52.10,1028.79,2052.97,1592.15,1610.99,1766.38,600.22,614.73,59.72,0000 0000 0000 0000 000000
2015-11-24 11:22:15,0.01,8.46,0.00,17.58,21.87,25.74,15.09,52.13,1028.80,2052.97,1591.93,1610.91,1766.02,599.95,614.40,59.77,0000 0000 0000 0000 000000
2015-11-24 11:27:17,0.11,8.47,0.00,17.63,21.89,25.71,15.19,52.23,1028.81,2052.96,1591.13,1610.09,1765.97,600.46,614.78,59.82,0000 0000 0000 0000 000000
2015-11-24 11:32:18,0.02,8.47,0.00,17.67,21.89,25.75,15.05,51.98,1028.80,2052.96,1591.00,1610.01,1765.66,599.76,613.84,59.87,0000 0000 0000 0000 000000
2015-11-24 11:37:20,0.01,8.47,0.00,17.71,21.90,25.71,15.04,52.07,1028.76,2052.92,1590.98,1610.00,1765.12,599.77,613.88,59.92,0000 0000 0000 0000 000000
2015-11-24 11:42:21,-0.00,8.47,0.00,17.75,21.92,25.71,15.09,52.22,1028.47,2052.80,1590.85,1609.99,1765.01,599.89,613.74,59.97,0000 0000 0000 0000 000000
2015-11-24 11:47:22,0.02,8.47,0.00,17.79,21.93,25.74,15.01,52.17,1028.37,2052.55,1590.24,1609.79,1764.99,599.91,613.62,60.02,0000 0000 0000 0000 000000
2015-11-24 11:52:23,0.01,8.47,0.00,17.83,21.94,25.70,15.02,52.36,1028.35,2052.22,1590.00,1609.31,1764.94,599.81,613.36,60.07,0000 0000 0000 0000 000000
2015-11-24 11:57:24,0.02,8.47,0.00,17.86,21.96,25.71,15.05,52.23,1028.34,2052.14,1590.00,1609.06,1764.59,600.15,613.62,60.12,0000 0000 0000 0000 000000
2015-11-24 12:02:26,0.00,1.13,0.00,17.89,22.00,25.68,13.14,41.09,1028.33,2056.48,3314.73,2970.12,3309.56,532.49,544.76,0.00,0000 0000 0000 0000 000000
2015-11-24 12:07:27,0.00,0.00,0.00,17.93,22.02,25.63,14.95,46.24,1028.33,2057.13,3568.95,3169.51,3534.48,599.94,613.35,0.05,0000 0000 0000 0000 000000
2015-11-24 12:12:28,0.01,0.00,0.00,17.96,22.04,25.66,14.99,46.62,1028.19,2057.04,3567.36,3168.22,3533.01,599.76,612.96,0.10,0000 0000 0000 0000 000000
2015-11-24 12:17:30,0.02,0.01,0.00,18.00,22.07,25.61,14.96,46.77,1028.16,2057.01,3566.00,3167.20,3531.78,600.01,613.27,0.15,0000 0000 0000 0000 000000
2015-11-24 12:22:31,0.04,0.01,0.00,18.02,22.09,25.70,14.95,46.97,1027.98,2057.00,3564.60,3166.24,3530.52,599.97,613.04,0.20,0000 0000 0000 0000 000000
2015-11-24 12:27:32,0.06,0.01,0.00,18.05,22.11,25.74,14.92,48.98,1027.90,2057.00,3563.04,3165.15,3529.15,600.15,613.04,0.25,0000 0000 0000 0000 000000
2015-11-24 12:32:34,0.04,0.02,0.00,18.08,22.12,25.75,14.98,49.51,1027.87,2057.00,3561.91,3164.71,3528.49,599.89,612.74,0.30,0000 0000 0000 0000 000000
2015-11-24 12:37:35,0.06,0.02,0.00,18.11,22.13,25.89,15.00,49.69,1027.86,2056.97,3560.66,3163.50,3527.22,600.05,612.90,0.35,0000 0000 0000 0000 000000
2015-11-24 12:42:36,0.07,0.02,0.00,18.13,22.15,25.94,14.99,49.92,1027.83,2056.97,3559.32,3162.38,3525.72,599.89,612.59,0.40,0000 0000 0000 0000 000000
2015-11-24 12:47:38,0.13,0.03,0.00,18.16,22.17,25.94,15.07,49.97,1027.83,2056.91,3556.90,3159.93,3522.92,600.26,612.93,0.46,0000 0000 0000 0000 000000
2015-11-24 12:52:39,0.04,0.03,0.00,18.19,22.19,25.98,15.04,49.80,1027.84,2056.54,3555.29,3158.34,3521.02,600.29,612.80,0.51,0000 0000 0000 0000 000000
2015-11-24 12:57:40,0.02,0.03,0.00,18.23,22.21,26.00,15.02,49.76,1027.85,2056.21,3554.27,3157.60,3520.05,600.31,612.90,0.56,0000 0000 0000 0000 000000